Terminal Aerodrome Forecast
Issued by NWS Houston/Galveston, TX

Home | Current Version | Previous Version | Text Only | Print | Product List | Glossary On
Versions: 1 2 3 4 5 6 7 8 9 10 11 12 13 14 15 16 17 18 19 20 21 22 23 24 25 26 27 28 29 30 31 32 33 34
000
FTUS44 KHGX 060309 AAA
TAFGLS
TAF AMD
KGLS 060309Z 0603/0624 12015G20KT P6SM SCT030 OVC070
     FM060900 14014KT P6SM SCT015 BKN025
     FM061600 14015KT P6SM SCT025 SCT110=

USA.gov is the U.S. government's official web portal to all federal, state and local government web resources and services.